This is the latest recevied weather packets stored in our database for station/object KF6RAL-6. If no packets are shown the sender has not sent any weather packets the latest 10 day(s).
| Time | Temp. | Humidity | Pressure | Rain* | Wind** | Luminosity | Snow |
|---|---|---|---|---|---|---|---|
| 1777344997 | 7.22° C | 65% | 1012.5 hPa | 0 mm | - | - | - |
| 1777344576 | 7.22° C | 65% | 1012.4 hPa | 0 mm | - | - | - |
| 1777344155 | 7.78° C | 64% | 1012.4 hPa | 0 mm | - | - | - |
| 1777343734 | 7.78° C | 65% | 1012.2 hPa | 0 mm | - | - | - |
| 1777343313 | 7.78° C | 65% | 1012.1 hPa | 0 mm | - | - | - |
| 1777342892 | 7.78° C | 65% | 1012 hPa | 0 mm | - | - | - |
| 1777342471 | 7.78° C | 64% | 1011.9 hPa | 0 mm | - | - | - |
| 1777342050 | 7.78° C | 64% | 1011.8 hPa | 0 mm | - | - | - |
| 1777341629 | 7.78° C | 65% | 1011.9 hPa | 0 mm | - | - | - |
| 1777341210 | 7.78° C | 65% | 1011.8 hPa | 0 mm | - | - | - |
| 1777340787 | 7.78° C | 65% | 1011.5 hPa | 0 mm | - | - | - |
| 1777340366 | 8.33° C | 65% | 1011.4 hPa | 0 mm | - | - | - |
| 1777339945 | 8.33° C | 67% | 1011.2 hPa | 0 mm | - | - | - |
| 1777339524 | 8.33° C | 68% | 1011.2 hPa | 0 mm | - | - | - |
| 1777339103 | 7.78° C | 68% | 1011.5 hPa | 0 mm | - | - | - |
| 1777338682 | 7.78° C | 68% | 1011.4 hPa | 0 mm | - | - | - |
| 1777338261 | 7.78° C | 66% | 1011.3 hPa | 0 mm | - | - | - |
| 1777337840 | 7.78° C | 68% | 1011.2 hPa | 0 mm | - | - | - |
| 1777337419 | 7.78° C | 68% | 1011.4 hPa | 0 mm | - | - | - |
| 1777336998 | 8.33° C | 69% | 1011.6 hPa | 0 mm | - | - | - |
| 1777336577 | 8.33° C | 70% | 1011.5 hPa | 0 mm | - | - | - |
| 1777336156 | 8.33° C | 72% | 1011.3 hPa | 0 mm | - | - | - |
| 1777335735 | 7.78° C | 71% | 1010.6 hPa | 0 mm | - | - | - |
| 1777335314 | 7.22° C | 74% | 1010.5 hPa | 0 mm | - | - | - |
| 1777334893 | 7.22° C | 76% | 1010.8 hPa | 0 mm | - | - | - |
* Rain latest hour (hover to see other rain measurements)
** Current wind speed in m/s (hover to see current wind gust speed)